sat.trackr.live / text

‹ back to catalog

YAMAL 300K

NORAD 38978 · 2012-061B

PAYLOAD ACTIVE UNKNOWN

§ Identity

Operator
Country
CIS
Launch date
2012-11-02
Launch site
TYMSC
Launch vehicle
Mass (kg)
RCS (m²)
17.78

Purposes: comms

External: N2YO · Heavens-Above · Gunter

§ Orbital elements

Epoch: 2026-09-19T20:00:38.819232Z

Period
1,436.10 min
Inclination
0.0139°
Eccentricity
0.0000499
Mean motion
1.00271309 rev/d
Perigee alt
35,784.6 km
Apogee alt
35,788.8 km
Semi-major
42,164.9 km
B*
0.0000e+0
RAAN
205.9028°
Arg perigee
221.2828°
Mean anomaly
54.6807°
Rev number
5,058

§ Raw data

YAMAL 300K1 38978U 12061B   26262.83378263  .00000067  00000+0  00000+0 0  99942 38978   0.0139 205.9028 0000499 221.2828  54.6807  1.00271309 50584

JSON: /api/v1/satellites/38978 · /tle

For live sub-satellite position, see the globe view (requires WebGL).

§ Visibility from observer

Set your observer location to see the next 7 days of passes ≥ 10°. The values pass through the URL so the page stays shareable.

No JS? Fill the form by hand. The geolocation button needs JavaScript.